Regional Weather Roundup
Issued by NWS

Home | Current Version | Previous Version | Graphics & Text | Print | Product List | Glossary On
Versions: 1 2 3 4 5 6 7 8 9 10 11 12 13 14 15 16 17 18 19 20 21 22 23 24 25 26 27 28 29 30 31 32 33 34 35 36 37 38 39 40 41 42 43 44 45 46 47 48 49 50
000
ASUS43 KLMK 012310
RWRKY
KENTUCKY REGIONAL WEATHER ROUNDUP
NATIONAL WEATHER SERVICE LOUISVILLE KY
700 PM EDT TUE SEP 01 2015

NOTE "FAIR" INDICATES FEW OR NO CLOUDS BELOW 12,000 FEET
WITH NO SIGNIFICANT WEATHER AND/OR OBSTRUCTIONS TO VISIBILITY.

KYZ001>023-026-027-061>063-070>075-020000-
WESTERN AND SOUTH CENTRAL KENTUCKY

CITY           SKY/WX    TMP DP  RH WIND       PRES   REMARKS
PADUCAH        MOSUNNY   86  70  58 CALM      30.06S HX  90
HENDERSON      MOSUNNY   90  66  45 CALM      30.05S HX  92
OWENSBORO      MOSUNNY   89  69  51 S3        30.08R HX  93
HOPKINSVILLE   PTSUNNY   86  67  52 W6        30.07S
BOWLING GREEN  SUNNY     84  66  54 NE7       30.08F
GLASGOW        PTSUNNY   83  66  57 CALM      30.09F
$$

KYZ024-025-028>034-038-045-046-053-020000-
NORTH CENTRAL KENTUCKY

CITY           SKY/WX    TMP DP  RH WIND       PRES   REMARKS
LOUISVILLE/SDF PTSUNNY   88  65  46 S10       30.07S HX  90
LOUISVILLE/LOU LGT RAIN  87  64  46 CALM      30.08S
FORT KNOX      MOSUNNY   82  68  63 W5        30.08S
$$

KYZ035>037-039>044-047>052-055>060-089>105-020000-
NORTHEAST KENTUCKY

CITY           SKY/WX    TMP DP  RH WIND       PRES   REMARKS
LEXINGTON      MOSUNNY   86  64  47 NW3       30.11S
COVINGTON      MOSUNNY   85  65  51 W5        30.09S
FRANKFORT      MOSUNNY   86  63  45 W3        30.09S
$$

KYZ054-064>069-076>088-106>120-020000-
SOUTHEAST KENTUCKY

CITY           SKY/WX    TMP DP  RH WIND       PRES   REMARKS
JACKSON        MOSUNNY   83  65  54 CALM      30.13S
LONDON         MOSUNNY   83  65  54 CALM      30.12S
SOMERSET       MOSUNNY   82  63  51 CALM      30.12S
MIDDLESBORO    MOSUNNY   81  71  72 W3        30.12S
MONTICELLO     MOCLDY    84  73  69 CALM      30.13F HX  90
$$




USA.gov is the U.S. government's official web portal to all federal, state and local government web resources and services.